IZ0VWB-3 Weather Reports


time (UTC)temp
C
wind
direction
speed
KPH
gust
KPH
rain 1hr
cm
rain 24hr
cm
rain mn
cm
humidity
%
barometer
mb
20260507230348 13 290 6.4 16.1 0.00 0.08 0.00 76 999.1
20260507225349 13 296 4.8 8.0 0.00 0.08 0.00 76 999.4
20260507224349 14 292 6.4 6.4 0.00 0.08 0.00 75 999.5
20260507223348 14 295 4.8 4.8 0.00 0.08 0.00 75 999.5
20260507222349 14 285 1.6 3.2 0.00 0.08 0.00 75 999.7
20260507221350 14 268 4.8 6.4 0.00 0.08 0.00 75 999.7
20260507220348 14 282 3.2 3.2 0.00 0.08 0.00 74 999.6
20260507215348 14 266 4.8 4.8 0.00 0.08 0.08 74 999.6
20260507214348 14 259 4.8 6.4 0.00 0.08 0.08 74 999.5
20260507213349 15 270 1.6 4.8 0.00 0.08 0.08 73 999.6
20260507212347 15 270 0.0 1.6 0.00 0.08 0.08 72 999.7
20260507211348 15 261 1.6 6.4 0.00 0.08 0.08 71 999.6
20260507210348 15 254 3.2 6.4 0.00 0.08 0.08 71 999.6
20260507205347 15 251 6.4 8.0 0.00 0.08 0.08 71 999.6
20260507204348 16 250 3.2 6.4 0.00 0.08 0.08 70 999.7
20260507203348 16 252 3.2 4.8 0.00 0.08 0.08 70 999.6
20260507202347 16 248 6.4 9.7 0.00 0.08 0.08 70 999.6
20260507201348 16 248 3.2 6.4 0.00 0.08 0.08 70 999.6
20260507200348 16 248 4.8 6.4 0.00 0.08 0.08 71 999.5
20260507195349 16 248 3.2 4.8 0.00 0.08 0.08 70 999.6
20260507194347 16 262 3.2 8.0 0.00 0.08 0.08 68 999.5
20260507193347 16 248 3.2 6.4 0.00 0.08 0.08 68 999.5
20260507192346 17 254 3.2 6.4 0.00 0.08 0.08 68 999.4
20260507191347 17 265 3.2 3.2 0.00 0.08 0.08 67 999.3
20260507190347 17 248 1.6 1.6 0.00 0.08 0.08 66 999.2
20260507185347 17 264 3.2 4.8 0.00 0.08 0.08 64 999.2
20260507184347 18 277 1.6 3.2 0.00 0.08 0.08 62 999.2
20260507183347 18 278 1.6 3.2 0.00 0.08 0.08 59 999.2
20260507182346 18 270 0.0 1.6 0.00 0.08 0.08 57 999.3
20260507181346 19 281 1.6 1.6 0.00 0.08 0.08 55 999.3
20260507180346 20 226 0.0 1.6 0.00 0.08 0.08 53 999.2
20260507175348 20 270 0.0 3.2 0.00 0.08 0.08 52 999.0
20260507174347 21 274 0.0 1.6 0.00 0.08 0.08 50 999.1
20260507173348 21 292 1.6 3.2 0.00 0.08 0.08 49 999.1
20260507172348 21 278 1.6 3.2 0.00 0.08 0.08 48 999.1
20260507171348 21 295 1.6 3.2 0.00 0.08 0.08 47 998.9
20260507170347 21 285 3.2 3.2 0.00 0.08 0.08 45 999.0
20260507165348 21 287 3.2 4.8 0.00 0.08 0.08 45 998.9
20260507164347 22 278 3.2 9.7 0.00 0.08 0.08 45 999.0
20260507163349 22 297 3.2 6.4 0.00 0.08 0.08 42 999.0
20260507162348 23 297 3.2 4.8 0.00 0.08 0.08 42 999.0
20260507161348 22 245 0.0 0.0 0.00 0.08 0.08 42 998.9
20260507160348 22 24 0.0 1.6 0.00 0.08 0.08 41 998.9
20260507155347 22 322 4.8 6.4 0.00 0.08 0.08 42 999.0
20260507154349 23 311 8.0 12.9 0.00 0.08 0.08 43 999.0
20260507153347 23 281 3.2 3.2 0.00 0.08 0.08 42 999.2
20260507152348 23 336 3.2 4.8 0.00 0.08 0.08 41 999.1
20260507151346 23 274 4.8 11.3 0.00 0.08 0.08 41 999.3
20260507150346 23 302 1.6 6.4 0.00 0.08 0.08 41 999.2
20260507145348 23 288 4.8 8.0 0.00 0.08 0.08 41 999.3
20260507144346 23 321 3.2 8.0 0.00 0.08 0.08 41 999.4
20260507143347 23 295 6.4 6.4 0.00 0.08 0.08 44 999.5
20260507142348 23 211 1.6 3.2 0.00 0.08 0.08 41 999.5
20260507141346 23 268 1.6 9.7 0.00 0.08 0.08 40 999.6
20260507140347 22 255 8.0 16.1 0.00 0.08 0.08 43 999.8
20260507135351 22 251 8.0 11.3 0.00 0.08 0.08 46 999.9
20260507134350 22 300 3.2 6.4 0.00 0.08 0.08 45 1000.1
20260507133350 22 272 8.0 12.9 0.00 0.08 0.08 46 1000.3
20260507132351 22 250 4.8 12.9 0.00 0.08 0.08 49 1000.3
20260507131352 22 304 1.6 3.2 0.00 0.08 0.08 49 1000.4
20260507130351 21 191 3.2 12.9 0.00 0.08 0.08 49 1000.5
20260507125350 21 271 8.0 14.5 0.00 0.08 0.08 51 1000.7
20260507124350 21 262 3.2 8.0 0.00 0.08 0.08 50 1000.7
20260507123351 21 221 11.3 14.5 0.00 0.08 0.08 50 1000.5
20260507122351 21 273 1.6 4.8 0.00 0.08 0.08 57 1000.5
20260507121352 20 138 1.6 3.2 0.00 0.08 0.08 62 1000.6
20260507120350 20 114 4.8 8.0 0.00 0.08 0.08 63 1000.5
20260507115351 20 145 1.6 1.6 0.00 0.08 0.08 64 1000.6
20260507114350 20 117 4.8 6.4 0.00 0.08 0.08 64 1000.7
20260507113349 20 158 1.6 1.6 0.00 0.08 0.08 64 1000.8
20260507112349 20 83 3.2 3.2 0.00 0.08 0.08 64 1000.8
20260507111350 20 135 0.0 1.6 0.00 0.08 0.08 65 1000.8
20260507110350 19 212 4.8 6.4 0.00 0.08 0.08 65 1000.9
20260507105350 19 83 4.8 4.8 0.00 0.08 0.08 67 1001.0
20260507104349 19 84 4.8 8.0 0.00 0.08 0.08 68 1001.0
20260507103351 19 126 0.0 3.2 0.00 0.08 0.08 70 1001.1
20260507102349 19 79 3.2 8.0 0.00 0.08 0.08 70 1001.1
20260507101349 18 71 3.2 3.2 0.00 0.08 0.08 71 1001.1
20260507100350 18 52 1.6 3.2 0.00 0.08 0.08 72 1001.4
20260507095347 18 129 3.2 8.0 0.00 0.08 0.08 72 1001.3
20260507094348 18 125 1.6 6.4 0.00 0.08 0.08 73 1001.3
20260507093349 18 96 4.8 12.9 0.00 0.08 0.08 74 1001.2
20260507092347 18 107 1.6 4.8 0.00 0.08 0.08 75 1001.2
20260507091347 17 112 6.4 9.7 0.00 0.08 0.08 76 1001.3
20260507090347 17 108 8.0 9.7 0.00 0.08 0.08 76 1001.5
20260507085349 17 126 3.2 11.3 0.00 0.08 0.08 78 1001.5
20260507084347 16 128 4.8 4.8 0.00 0.08 0.08 79 1001.4
20260507083348 17 112 6.4 9.7 0.00 0.08 0.08 80 1001.5
20260507082348 17 135 4.8 4.8 0.00 0.08 0.08 81 1001.5
20260507081349 16 115 6.4 6.4 0.00 0.08 0.08 81 1001.5
20260507080348 16 111 3.2 3.2 0.00 0.08 0.08 82 1001.5
20260507075347 16 142 0.0 4.8 0.00 0.08 0.08 83 1001.6
20260507074347 16 113 8.0 11.3 0.00 0.08 0.08 85 1001.6
20260507073347 15 113 3.2 6.4 0.00 0.08 0.08 84 1001.6
20260507072347 15 124 3.2 3.2 0.00 0.08 0.08 83 1001.6
20260507071347 14 107 4.8 9.7 0.00 0.08 0.08 82 1001.5
20260507070347 14 125 3.2 3.2 0.00 0.08 0.08 81 1001.5
20260507065346 14 161 0.0 4.8 0.00 0.08 0.08 80 1001.3
20260507064346 14 98 1.6 3.2 0.00 0.08 0.08 79 1001.3
20260507063347 13 97 3.2 4.8 0.00 0.08 0.08 77 1001.2
20260507062346 13 135 3.2 4.8 0.00 0.08 0.08 76 1001.1
20260507061346 13 141 0.0 3.2 0.00 0.08 0.08 74 1001.1
20260507060347 14 136 4.8 8.0 0.00 0.08 0.08 72 1001.2
20260507055347 14 135 1.6 3.2 0.00 0.08 0.08 71 1001.2
20260507054345 14 134 1.6 9.7 0.00 0.08 0.08 69 1001.0
20260507053346 13 125 1.6 3.2 0.00 0.08 0.08 70 1001.0
20260507052346 13 149 0.0 1.6 0.00 0.08 0.08 70 1001.0
20260507051346 12 121 1.6 3.2 0.00 0.08 0.08 70 1000.9
20260507050346 12 130 0.0 3.2 0.00 0.13 0.08 70 1000.9
20260507045346 12 150 1.6 1.6 0.00 0.13 0.08 70 1000.7
20260507044346 12 144 1.6 3.2 0.00 0.13 0.08 71 1000.7
20260507043346 12 128 3.2 8.0 0.00 0.13 0.08 71 1000.5
20260507042346 12 156 0.0 1.6 0.00 0.13 0.08 71 1000.6
20260507041346 12 133 0.0 0.0 0.00 0.13 0.08 71 1000.4
20260507040345 12 148 1.6 4.8 0.00 0.13 0.08 71 1000.2
20260507035345 12 140 4.8 8.0 0.00 0.13 0.08 72 1000.3
20260507034346 12 119 3.2 6.4 0.00 0.13 0.08 72 1000.2
20260507033346 12 129 1.6 3.2 0.00 0.13 0.08 72 1000.3
20260507032346 12 151 0.0 1.6 0.00 0.13 0.08 72 1000.3
20260507031347 12 125 3.2 4.8 0.00 0.13 0.08 72 1000.3
20260507030345 12 135 3.2 3.2 0.00 0.13 0.08 73 1000.3
20260507025346 12 128 1.6 3.2 0.00 0.13 0.08 74 1000.3
20260507024345 12 114 3.2 3.2 0.00 0.13 0.08 74 1000.4
20260507023344 12 112 3.2 4.8 0.00 0.13 0.08 74 1000.2
20260507022345 12 112 4.8 6.4 0.00 0.13 0.08 74 1000.2
20260507021345 12 113 4.8 9.7 0.00 0.13 0.08 76 1000.2
20260507020345 12 128 1.6 6.4 0.08 0.13 0.08 76 1000.3
20260507015344 12 138 3.2 4.8 0.08 0.13 0.08 76 1000.3
20260507014342 12 126 3.2 6.4 0.08 0.13 0.08 77 1000.3
20260507013343 12 151 3.2 3.2 0.08 0.13 0.08 77 1000.3
20260507012342 12 130 3.2 6.4 0.08 0.13 0.08 77 1000.2
20260507011343 12 138 0.0 1.6 0.08 0.13 0.08 77 1000.2
20260507010342 13 146 1.6 3.2 0.00 0.08 0.00 77 1000.1
20260507005343 13 137 3.2 4.8 0.00 0.08 0.00 77 1000.1
20260507004343 13 124 0.0 3.2 0.00 0.08 0.00 77 1000.1
20260507003344 13 131 1.6 4.8 0.00 0.08 0.00 77 1000.1
20260507002342 13 147 3.2 8.0 0.00 0.08 0.00 77 999.9
20260507001342 13 147 1.6 3.2 0.00 0.08 0.00 77 1000.2
20260507000343 13 186 1.6 3.2 0.00 0.08 0.00 76 1000.3
20260506235341 13 139 1.6 4.8 0.00 0.08 0.00 76 1000.3
20260506234342 13 132 1.6 8.0 0.00 0.08 0.00 76 1000.1
20260506233342 13 129 1.6 1.6 0.00 0.08 0.00 76 1000.2
20260506232341 13 112 4.8 6.4 0.00 0.08 0.00 76 1000.3
20260506231342 13 126 3.2 6.4 0.00 0.08 0.00 76 1000.2